Location: Rodanthe
(35.5920°N, 75.4670°W)
Time: 12:01:24
(UTC-04:00)

ISS - All Passes

Search period start: 23 June 2018 00:00
Search period end: 03 July 2018 00:00
Orbit: 403 x 408 km, 51.6° (Epoch: 24 June)

Date Brightness Start Highest point End Pass type
(mag) Time Alt. Az. Time Alt. Az. Time Alt. Az.
23 Jun - 08:10:33 10° SW 08:13:49 74° SE 08:17:06 10° NE daylight
23 Jun - 09:48:44 10° WNW 09:50:38 14° NNW 09:52:33 10° N daylight
23 Jun - 14:41:10 10° NNW 14:43:56 24° NNE 14:46:41 10° E daylight
23 Jun - 16:17:31 10° WNW 16:20:24 29° SW 16:23:16 10° SSE daylight
24 Jun - 07:18:52 10° SSW 07:21:51 33° SE 07:24:51 10° ENE daylight
24 Jun - 08:55:43 10° W 08:58:23 22° NNW 09:01:03 10° NNE daylight
24 Jun - 13:49:37 10° N 13:51:40 15° NNE 13:53:44 10° ENE daylight
24 Jun - 15:25:12 10° NW 15:28:27 64° SW 15:31:41 10° SE daylight
25 Jun - 06:27:51 10° SSE 06:29:58 16° SE 06:32:04 10° E daylight
25 Jun - 08:03:05 10° WSW 08:06:12 39° NW 08:09:19 10° NE daylight
25 Jun - 12:58:43 10° NNE 12:59:20 10° NNE 12:59:57 10° NNE daylight
25 Jun - 14:33:09 10° NW 14:36:24 58° NE 14:39:38 10° ESE daylight
25 Jun - 16:11:43 10° WSW 16:12:30 11° SW 16:13:16 10° SW daylight
26 Jun - 07:10:48 10° SW 07:14:05 83° NW 07:17:23 10° NE daylight
26 Jun - 08:49:33 10° NW 08:51:01 12° NNW 08:52:30 10° N daylight
26 Jun - 13:41:18 10° NNW 13:44:15 30° NE 13:47:12 10° E daylight
26 Jun - 15:18:01 10° WNW 15:20:37 22° SW 15:23:13 10° S daylight
27 Jun - 06:18:55 10° SSW 06:22:03 44° SE 06:25:13 10° ENE daylight
27 Jun - 07:56:16 10° WNW 07:58:42 19° NNW 08:01:08 10° NNE daylight
27 Jun - 12:49:38 10° NNW 12:52:00 18° NNE 12:54:22 10° ENE daylight
27 Jun - 14:25:30 10° WNW 14:28:40 46° SW 14:31:49 10° SSE daylight
28 Jun - 05:27:34 10° S 05:30:05 21° SE 05:32:39 10° E daylight
28 Jun - 07:03:28 10° W 07:06:26 31° NW 07:09:26 10° NNE daylight
28 Jun - 11:58:17 10° N 11:59:39 12° NNE 12:01:00 10° NE daylight
28 Jun - 13:33:19 10° NW 13:36:37 78° NE 13:39:52 10° SE daylight
29 Jun - 04:37:56 10° SE 04:38:12 10° SE 04:38:28 10° ESE visible
29 Jun - 06:11:01 10° WSW 06:14:16 62° NW 06:17:32 10° NE daylight
29 Jun - 07:50:28 10° NW 07:51:19 11° NNW 07:52:09 10° N daylight
29 Jun - 12:41:22 10° NNW 12:44:28 37° NE 12:47:32 10° ESE daylight
29 Jun - 14:18:30 10° W 14:20:43 17° SW 14:22:55 10° S daylight
30 Jun - 05:18:56 10° SW 05:22:10 60° SE 05:25:25 10° NE visible
30 Jun - 06:56:47 10° WNW 06:58:54 16° NNW 07:01:03 10° NNE daylight
30 Jun - 11:49:34 10° NNW 11:52:12 21° NNE 11:54:48 10° E daylight
30 Jun - 13:25:43 10° WNW 13:28:45 35° SW 13:31:45 10° SSE daylight
01 Jul - 04:27:18 10° S 04:30:08 27° SE 04:32:59 10° ENE visible
01 Jul - 06:03:47 10° W 06:06:35 25° NNW 06:09:24 10° NNE daylight
01 Jul - 10:58:02 10° N 10:59:50 14° NNE 11:01:39 10° ENE daylight
01 Jul - 12:33:24 10° NW 12:36:41 79° SW 12:39:57 10° SE daylight
02 Jul - 03:36:31 10° SSE 03:38:10 13° SE 03:39:51 10° E visible
02 Jul - 05:11:09 10° WSW 05:14:20 47° NW 05:17:32 10° NE visible
02 Jul - 11:41:20 10° NW 11:44:32 48° NE 11:47:43 10° ESE daylight
02 Jul - 13:19:05 10° W 13:20:41 13° SW 13:22:16 10° SSW daylight
